Skip Page Navigation
NASA JPL Caltech
NASA Logo - Jet Propulsion Laboratory + View the NASA Portal
+ Center for Near-Earth Object Studies
JPL Home Earth Solar System Stars & Galaxies Technology
JPL Solar System Dynamics
BODIES ORBITS EPHEMERIDES TOOLS PHYSICAL DATA DISCOVERY FAQ SITE MAP
JPL Small-Body Database Browser
Search: [ help ]  
134232 (2005 YN46)
Classification: Main-belt Asteroid          SPK-ID: 2134232
Ephemeris | Orbit Diagram | Orbital Elements | Mission Design | Physical Parameters | Discovery Circumstances | Close-Approach Data ]

[ show orbit diagram ]
Orbital Elements at Epoch 2459200.5 (2020-Dec-17.0) TDB
Reference: JPL 19 (heliocentric ecliptic J2000)
 Element Value Uncertainty (1-sigma)   Units 
e .1098468410303761 3.6371e-08  
a 2.353957744355746 1.0851e-08 au
q 2.095382922219277 8.9952e-08 au
i 7.424111659336011 3.5144e-06 deg
node 121.6995852167792 3.8307e-05 deg
peri 324.13445294 4.4772e-05 deg
M 67.68205276603024 2.2576e-05 deg
tp 2458952.490999448025
(2020-Apr-12.99099945)
8.2514e-05 TDB
period 1319.1568008044
3.61
9.1211e-06
2.497e-08
d
yr
n .2729015987943799 1.8869e-09 deg/d
Q 2.612532566492214 1.2043e-08 au
  Orbit Determination Parameters
   # obs. used (total)      382  
   data-arc span      7055 days (19.32 yr)  
   first obs. used      2001-10-15  
   last obs. used      2021-02-07  
   planetary ephem.      DE441  
   SB-pert. ephem.      SB441-N16  
   condition code      0  
   norm. resid. RMS      .54981  
   source      ORB  
   producer      Otto Matic  
   solution date      2021-Apr-13 18:07:29  

Additional Information
 Earth MOID = 1.11644 au 
 Jupiter MOID = 2.55413 au 
 T_jup = 3.536 
[ show covariance matrix ]

Ephemeris | Orbit Diagram | Orbital Elements | Mission Design | Physical Parameters | Discovery Circumstances | Close-Approach Data ]

Physical Parameter Table
Parameter Symbol Value Units Sigma Reference Notes
absolute magnitude H 16.9   n/a MPO248158  

134232 (2005 YN46)          Discovered 2005-Dec-25 by Spacewatch at Kitt Peak
Reference: 20060711/Numbers.arcLast Updated: 2006-07-17

[ show close-approach data ]
Ephemeris | Orbit Diagram | Orbital Elements | Mission Design | Physical Parameters | Discovery Circumstances | Close-Approach Data ]
ABOUT SSD CREDITS/AWARDS PRIVACY/COPYRIGHT GLOSSARY LINKS
FirstGov 2021-Apr-19 13:46 UT
(server date/time)  
NASA Home Page
Site Manager:   Ryan S. Park
Webmaster  Alan B. Chamberlin